Location: La Pernelle
(49.6188°N, 1.2999°W)
Time: 03:10:11
(UTC+00:00)

NOSS 3-2 (A) - Pass Details

Date: 23 October 2021
Orbit: 771 x 1437 km, 63.4° (Epoch: 21 November)

Event Time Altitude Azimuth Distance (km) Brightness Sun altitude
Rises 18:48:27 0° 307° (NW) 3,706 7.5 -18.4°
Reaches altitude 10° 18:51:15 10° 318° (NW) 2,856 6.6 -18.9°
Maximum altitude 18:57:16 31° 19° (NNE) 1,906 4.9 -19.8°
Enters shadow 19:00:28 23° 58° (ENE) 2,324 5.0 -20.3°
